Lapse_Rate
6.4 6.5 6.6 6.6 6.5 6.3 6.2 6.2 6.2 6.2 6.2 6.1 6.0 6.0 6.0 6.0 6.1 6.2 6.3 6.3 6.4 6.4 6.3 6.3 6.2 6.2 6.1 6.1 6.0 5.8 5.6 5.7 6.2 6.3 6.4 6.3 6.3 6.3 6.4 6.4 6.3 6.3 6.3 6.3 6.3
6.5 6.6 6.7 6.7 6.6 6.4 6.3 6.2 6.2 6.2 6.2 6.1 6.0 6.1 6.2 6.2 6.3 6.3 6.4 6.4 6.3 6.3 6.3 6.3 6.2 6.1 6.1 6.1 6.0 5.8 6.0 6.0 6.3 6.3 6.3 6.4 6.4 6.5 6.5 6.4 6.6 6.4 6.4 6.4 6.4
6.6 6.8 6.8 6.7 6.6 6.5 6.4 6.2 6.1 6.2 6.2 6.1 6.1 6.3 6.4 6.4 6.4 6.4 6.4 6.3 6.3 6.3 6.2 6.2 6.1 6.1 6.1 6.1 6.2 6.2 6.2 6.2 6.2 6.2 6.3 6.4 6.4 6.5 6.5 6.7 6.4 6.5 6.5 6.5 6.3
6.8 6.8 6.8 6.7 6.6 6.6 6.3 6.2 6.2 6.3 6.3 6.3 6.3 6.4 6.5 6.4 6.3 6.4 6.4 6.4 6.3 6.3 6.2 6.1 6.1 6.1 6.2 6.2 6.2 6.2 6.3 6.2 6.2 6.2 6.3 6.3 6.4 6.6 6.7 6.4 6.5 6.3 6.3 6.4 6.2
6.7 6.8 6.8 6.8 6.7 6.5 6.4 6.4 6.4 6.4 6.4 6.5 6.4 6.4 6.5 6.5 6.4 6.4 6.4 6.4 6.4 6.3 6.3 6.3 6.2 6.1 6.2 6.3 6.3 6.3 6.3 6.3 6.3 6.3 6.3 6.4 6.4 6.5 6.7 6.4 6.5 6.3 6.3 6.2 6.2
6.7 6.8 6.8 6.7 6.6 6.6 6.5 6.6 6.6 6.6 6.6 6.6 6.6 6.5 6.5 6.4 6.6 6.5 6.5 6.5 6.5 6.4 6.4 6.3 6.3 6.3 6.3 6.4 6.4 6.5 6.4 6.3 6.4 6.4 6.5 6.5 6.5 6.5 6.6 6.5 6.5 6.3 6.2 6.2 6.1
6.6 6.7 6.8 6.7 6.6 6.6 6.6 6.7 6.7 6.7 6.8 6.7 6.7 6.7 6.5 6.5 6.7 6.7 6.6 6.6 6.5 6.5 6.5 6.5 6.5 6.4 6.4 6.4 6.5 6.5 6.5 6.4 6.6 6.5 6.5 6.4 6.8 6.9 6.8 6.8 6.6 6.5 6.3 6.2 6.2
6.6 6.7 6.8 6.8 6.7 6.7 6.6 6.7 6.8 6.8 6.8 6.8 6.9 6.9 6.9 6.8 6.8 6.8 6.8 6.7 6.7 6.7 6.6 6.6 6.6 6.5 6.5 6.4 6.4 6.4 6.4 6.5 6.9 6.7 6.5 6.3 7.2 6.8 6.7 6.6 6.4 6.4 6.3 6.3 6.3
6.8 6.8 6.8 6.8 6.8 6.7 6.7 6.7 6.9 7.0 6.9 6.9 7.0 7.0 7.2 7.2 7.1 7.0 6.9 6.9 6.8 6.8 6.7 6.7 6.7 6.6 6.7 6.5 6.3 6.5 6.5 6.6 6.6 6.7 6.5 6.3 7.0 6.9 6.6 6.5 6.6 6.5 6.4 6.4 6.4
6.9 6.9 6.9 6.9 6.9 6.8 6.8 6.9 6.9 6.9 7.0 7.1 7.1 7.0 7.2 7.2 7.1 7.0 6.9 6.9 6.9 6.8 6.8 6.8 6.6 6.6 6.9 6.6 6.7 6.6 6.6 6.6 6.6 6.6 6.3 6.2 6.9 7.1 6.8 6.5 6.7 6.6 6.5 6.5 6.6
6.9 6.9 6.9 6.9 6.9 6.9 6.9 6.9 6.9 7.1 7.1 7.0 7.1 7.1 7.1 7.2 7.2 7.1 7.0 6.9 6.8 6.8 6.7 6.6 6.5 7.1 7.0 6.5 6.3 6.5 6.4 6.4 6.5 6.4 6.0 6.2 6.4 7.2 7.2 6.8 7.1 7.0 6.8 6.9 6.9
6.9 6.9 6.9 6.8 6.8 6.9 6.9 6.9 6.8 6.9 7.4 7.2 7.2 7.3 7.3 7.2 7.1 6.9 6.7 6.6 6.7 6.7 6.5 6.4 6.6 7.0 6.7 6.6 6.5 6.5 6.4 6.6 6.6 6.4 6.0 6.1 6.2 7.0 7.5 7.3 7.3 7.4 7.2 7.2 7.1
6.7 6.8 6.9 6.9 6.9 6.9 6.8 6.8 6.8 6.8 6.9 7.7 7.8 7.7 7.4 7.1 6.9 6.9 6.6 6.5 6.5 6.4 6.5 6.3 6.7 6.8 6.8 6.8 6.7 6.6 6.6 6.5 6.4 6.3 6.1 5.8 5.8 6.6 7.5 7.5 7.6 7.4 7.5 7.3 7.1
6.7 6.7 6.7 6.7 6.8 6.8 6.8 6.8 6.7 6.6 6.7 7.4 7.5 7.5 7.4 7.1 6.7 6.9 6.7 6.4 6.3 6.4 6.3 6.2 6.8 6.8 6.8 6.9 6.9 6.2 7.1 6.6 6.5 6.0 6.0 5.4 5.9 6.0 6.7 7.3 7.6 7.4 7.6 7.5 7.2
6.6 6.8 6.8 6.7 6.7 6.7 6.7 6.7 6.7 6.6 6.4 7.1 7.0 7.2 7.1 7.0 7.0 6.9 6.8 6.5 6.5 6.4 6.3 6.5 6.8 6.8 6.7 7.0 6.9 6.3 6.6 6.5 6.3 5.9 5.2 5.2 5.0 6.1 6.2 6.6 7.2 7.4 7.5 7.5 7.3
6.8 6.8 6.8 6.8 6.8 6.7 6.7 6.6 6.5 6.5 5.8 7.2 7.2 7.2 7.0 6.8 6.7 6.7 6.6 6.5 6.6 6.4 6.4 6.7 6.7 6.6 6.8 6.8 6.6 6.5 6.2 6.1 5.9 5.5 5.1 5.9 5.5 6.2 6.5 6.6 6.9 7.1 7.1 7.3 7.6
6.6 6.7 6.8 6.9 6.8 6.8 6.7 6.6 6.4 6.2 7.2 7.2 7.3 7.1 6.9 6.9 6.8 6.8 6.7 6.6 6.7 6.5 6.6 6.7 6.7 6.7 6.8 6.7 6.3 6.2 5.8 6.5 6.2 5.0 6.1 5.5 4.5 5.7 6.4 6.5 6.7 6.8 6.9 7.1 6.9
6.6 6.6 6.6 6.5 6.5 6.5 6.4 6.3 5.9 6.4 7.2 7.3 7.3 7.2 7.0 6.9 6.8 6.9 6.8 6.7 6.8 6.7 6.4 6.0 6.0 6.7 6.7 6.9 6.6 6.5 5.8 6.6 6.9 7.2 7.7 4.8 4.9 5.9 6.1 6.5 6.7 6.9 7.0 6.8 6.8
6.5 6.5 6.4 6.3 6.3 6.2 6.1 5.7 6.2 6.6 6.7 6.9 6.7 6.6 6.5 6.6 6.7 6.5 6.5 6.4 6.6 6.7 6.5 6.4 6.1 6.7 6.5 6.5 6.7 5.6 5.4 6.4 6.2 6.3 6.0 6.4 6.3 6.2 6.2 6.4 6.5 6.7 6.8 7.0 7.0
6.1 6.1 6.2 5.9 5.8 5.8 5.7 5.5 5.8 6.2 6.2 6.2 5.9 5.9 5.9 6.1 6.1 6.1 6.2 6.2 6.3 6.5 6.6 6.4 6.1 6.1 6.2 6.1 5.8 6.2 6.1 5.8 5.7 6.6 7.0 6.8 6.9 6.2 6.3 6.5 6.6 6.9 7.0 7.2 7.1
5.9 5.8 5.8 5.7 5.4 5.2 5.1 5.3 5.5 5.5 5.4 5.4 5.4 5.4 5.4 5.4 5.5 5.5 5.4 5.7 5.8 5.9 6.1 6.2 6.1 5.8 5.5 5.3 5.8 6.0 5.4 5.7 6.6 6.5 7.3 7.4 7.0 6.8 6.5 6.5 6.8 6.9 7.1 7.0 7.0
6.3 6.1 5.6 5.5 5.5 5.3 5.2 5.2 4.9 4.9 5.1 5.2 5.1 5.1 5.0 4.9 4.6 4.8 4.9 5.3 5.7 5.8 5.8 6.2 6.2 5.6 5.7 5.5 5.6 5.6 5.8 6.2 6.4 6.7 6.8 7.0 6.4 6.8 6.6 6.5 6.8 6.9 7.0 6.8 6.7
6.0 5.9 5.8 5.5 5.0 4.8 4.7 4.6 4.6 4.6 4.8 4.7 4.7 4.8 4.4 4.4 4.3 4.6 4.6 5.0 5.4 5.6 5.5 5.9 5.8 5.7 5.6 5.6 5.5 5.9 5.9 6.1 6.4 6.5 6.1 6.9 6.1 6.7 6.5 6.5 6.9 7.2 7.2 7.0 6.8
5.4 5.5 5.4 5.1 4.4 4.5 4.3 4.4 4.5 4.6 4.7 4.7 4.5 4.7 4.6 4.5 4.7 4.2 4.3 4.4 4.8 5.1 5.3 5.4 5.1 5.4 6.1 6.2 6.6 6.2 6.4 6.3 6.3 5.9 6.1 6.3 6.6 6.2 6.7 6.9 6.9 6.8 6.7 6.4 6.1
4.8 4.7 4.7 5.0 4.7 4.4 4.4 4.3 4.1 4.0 4.5 4.2 4.4 4.4 4.3 3.9 4.0 4.3 4.4 4.4 4.6 5.0 5.4 5.3 5.3 5.7 5.7 5.7 5.7 5.6 5.8 6.0 5.7 6.0 5.9 5.8 6.0 6.1 6.7 6.5 6.3 6.0 6.2 6.3 6.4
4.8 4.7 4.4 4.1 3.9 4.2 4.2 4.0 3.8 3.6 3.5 3.9 4.0 4.2 3.8 3.4 2.9 3.2 3.7 3.6 3.4 4.6 4.9 5.4 4.8 5.2 5.7 5.9 6.4 6.1 6.1 6.2 6.3 6.4 6.2 6.3 6.2 6.1 5.7 6.0 6.3 6.2 6.1 6.4 6.4
5.1 5.0 4.9 4.5 4.7 4.4 4.1 4.3 4.0 3.3 3.4 3.5 3.2 3.5 4.0 4.1 3.9 3.7 3.7 4.1 4.3 4.6 4.7 4.8 4.8 5.3 5.8 6.0 6.1 6.4 5.1 5.6 5.8 5.4 4.6 4.7 3.6 4.5 5.3 5.9 5.8 6.2 6.2 6.2 6.2
Wind_Speed
8 8 8 8 8 8 7 8 7 7 6 7 7 7 7 9 7 4 3 2 3 3 2 2 4 4 3 3 2 1 4 6 4 5 1 5 8 5 0 7 5 8 4 4 14
10 10 9 9 8 8 7 7 7 6 5 5 6 6 7 8 2 5 3 5 3 5 4 9 8 7 4 3 3 4 4 4 2 3 3 5 8 4 5 9 11 11 6 7 15
13 12 11 9 9 8 8 8 7 6 5 5 5 6 7 3 2 1 8 4 5 7 3 3 5 4 5 3 5 3 5 2 4 6 4 4 5 5 7 11 15 13 15 13 16
16 14 13 11 9 9 9 8 7 5 5 5 4 6 5 2 2 3 4 3 4 7 6 6 5 5 4 5 4 5 7 5 2 3 4 5 2 5 13 13 1 8 5 17 18
19 18 15 13 11 10 10 10 7 7 6 5 4 5 2 2 5 6 5 6 7 7 5 6 6 4 5 3 4 8 5 4 6 4 6 4 10 9 15 16 13 3 8 15 16
22 20 17 14 11 9 9 9 8 8 6 4 3 2 2 5 4 5 5 6 4 4 4 5 4 4 2 3 7 1 6 8 5 7 6 6 6 2 6 2 16 16 14 13 17
24 23 20 17 14 11 9 9 8 8 6 3 1 0 2 8 2 4 5 3 3 3 3 3 3 4 4 3 1 2 6 7 11 7 4 4 10 15 18 4 5 13 14 15 16
26 26 24 21 17 12 9 8 8 7 5 3 2 1 5 1 2 3 5 4 3 3 2 4 3 3 2 2 2 4 3 5 4 8 3 4 14 5 1 10 13 12 11 12 16
26 27 26 23 19 14 11 9 9 5 4 4 3 2 5 3 3 4 3 4 5 4 3 4 1 1 3 4 5 5 8 8 3 9 3 10 11 4 3 8 11 12 14 13 14
29 29 27 25 21 16 10 2 4 7 3 3 1 3 4 3 4 4 2 6 2 6 4 3 2 4 4 7 8 5 6 6 8 5 7 9 21 19 17 15 20 17 15 16 16
30 29 28 25 21 14 4 2 2 3 4 7 5 2 3 3 3 3 3 6 4 3 6 3 7 13 15 14 10 5 9 14 8 3 4 14 20 22 18 16 19 17 16 16 17
30 30 29 26 21 8 2 2 3 2 8 7 8 5 3 3 3 5 6 8 6 9 6 4 13 13 2 4 10 9 11 15 9 4 6 13 20 23 25 21 18 15 12 11 10
31 30 31 28 17 2 4 2 1 1 5 3 3 4 3 7 5 7 11 5 7 8 11 13 1 4 6 6 9 11 15 11 9 2 8 10 17 14 7 4 5 9 8 6 7
31 30 30 33 1 3 2 1 1 1 4 3 3 2 3 3 4 2 6 3 4 8 7 9 2 7 6 9 11 13 9 8 5 3 10 2 11 11 11 13 9 5 8 5 4
33 30 27 11 4 1 2 2 1 2 5 4 2 1 1 3 3 3 0 3 6 7 5 3 7 7 9 8 13 3 2 4 2 6 5 9 7 7 2 7 8 3 3 2 2
34 30 23 1 1 1 3 2 3 3 7 1 2 3 3 3 2 3 2 0 1 3 5 9 1 4 4 3 6 9 4 2 1 3 9 15 13 7 5 7 6 4 3 2 3
36 31 9 2 2 3 2 2 3 5 1 3 3 4 3 5 5 7 6 7 6 4 7 4 7 3 3 5 3 7 5 4 5 5 8 3 8 13 6 3 2 4 3 1 2
37 23 3 1 2 3 2 3 8 2 6 2 1 2 5 6 4 5 4 7 11 5 6 8 9 11 11 13 7 14 8 7 9 7 11 4 9 6 4 1 3 3 3 3 3
29 4 1 1 1 1 2 6 4 4 3 3 1 5 4 2 3 5 8 8 6 16 10 6 8 3 6 4 5 7 10 3 8 7 8 11 16 11 5 6 6 7 7 7 5
6 4 2 2 1 1 3 4 4 3 3 1 4 4 6 3 4 5 5 4 4 11 8 3 10 5 5 2 1 5 4 4 5 8 16 15 17 13 6 13 13 12 11 9 6
3 4 2 5 2 2 5 6 5 2 3 3 5 7 8 9 8 10 9 2 4 3 8 4 7 7 6 9 12 5 6 6 5 9 15 18 14 1 1 4 11 14 12 12 10
4 3 4 4 3 1 3 2 3 3 1 5 4 10 14 13 15 15 20 17 4 7 7 8 5 13 19 7 3 13 18 20 13 18 12 16 21 3 4 1 4 8 11 10 9
4 3 3 3 3 1 6 5 3 4 4 4 4 3 2 7 7 12 11 5 10 8 6 6 7 13 17 8 2 8 15 17 18 11 23 17 18 3 3 4 7 10 13 12 12
3 4 3 3 3 5 6 5 7 8 2 8 7 11 8 6 8 10 9 4 15 4 6 1 13 16 16 17 3 6 10 14 17 12 19 21 25 27 22 14 11 10 13 15 14
4 4 2 4 4 10 6 7 10 6 8 11 1 10 8 5 6 5 7 9 11 13 7 4 8 16 23 26 20 19 20 18 16 18 15 22 24 28 25 18 14 14 13 14 13
3 4 5 4 7 8 7 7 8 7 4 8 6 14 9 8 11 16 8 10 8 8 11 11 6 7 12 23 22 23 26 28 30 31 32 31 30 25 18 22 19 1 10 11 11
4 3 2 4 5 4 3 8 8 8 6 6 11 13 12 11 15 19 18 20 21 20 18 13 6 6 15 18 16 14 13 13 16 19 11 9 12 17 19 21 21 19 16 13 11
Wind_Direction
338 325 319 315 311 310 310 305 304 301 305 302 304 308 318 331 311 178 250 104 151 151 141 151 164 149 164 141 158 201 247 257 255 207 173 157 205 177 234 231 206 198 257 83 140
349 339 329 322 319 316 311 303 294 291 295 294 300 315 334 334 274 237 128 158 181 160 189 182 169 169 174 161 167 228 250 254 281 239 243 189 220 211 215 215 230 222 186 142 156
359 345 335 332 321 316 303 291 280 280 280 288 298 326 329 290 273 204 151 170 183 176 210 182 149 190 196 186 186 181 247 250 258 236 247 232 232 220 236 244 239 230 215 179 179
3 352 343 333 323 310 299 285 275 274 275 281 303 322 325 244 291 142 162 174 182 169 168 164 184 181 214 214 179 238 247 242 279 215 202 239 276 246 229 242 260 239 236 184 189
6 1 351 338 326 311 297 284 283 279 276 287 312 317 206 236 252 145 153 140 133 161 204 192 192 189 224 208 187 238 264 227 242 232 236 253 247 260 256 250 236 186 180 194 201
7 2 353 341 325 309 295 290 284 280 285 290 312 283 201 255 107 147 148 136 157 181 176 187 235 219 252 228 220 330 266 265 255 237 236 240 258 215 250 282 232 223 218 208 207
5 360 352 344 333 320 304 286 275 276 282 283 350 177 224 256 165 144 154 139 148 185 178 182 164 199 169 212 230 279 283 255 232 220 241 219 254 234 248 232 215 216 225 224 217
360 359 352 347 341 326 306 288 267 255 267 227 154 181 258 86 144 170 145 119 111 90 101 124 149 128 249 118 205 245 241 260 135 174 175 211 267 234 205 214 229 224 222 221 218
358 355 351 348 341 329 308 281 258 238 196 150 182 224 259 126 202 164 189 164 130 108 82 112 136 144 163 227 246 211 266 231 239 201 166 217 276 257 173 212 243 234 232 226 223
354 349 347 344 339 333 327 231 110 133 120 146 100 258 197 211 154 145 114 147 148 141 139 184 166 218 201 205 247 234 234 237 251 173 218 234 261 267 262 255 263 263 246 235 223
348 346 344 343 338 332 316 184 209 189 213 216 188 237 137 112 152 160 147 142 141 204 209 182 218 220 228 223 271 282 268 265 259 174 250 253 267 277 276 260 263 259 254 246 236
348 345 343 342 336 330 307 55 44 357 292 236 238 270 242 182 173 180 169 190 191 214 157 194 241 246 200 218 228 238 259 262 271 198 222 278 272 278 276 265 261 263 254 241 234
346 345 342 340 332 32 50 57 312 264 262 265 190 206 205 178 223 189 181 176 211 209 206 230 241 122 185 188 209 229 237 258 267 247 236 285 273 253 263 231 221 235 250 247 228
344 344 343 333 77 343 53 345 281 262 278 207 198 171 134 158 227 105 193 206 203 235 208 245 183 207 204 230 210 254 229 235 238 261 278 296 287 265 254 264 258 248 227 234 224
342 342 341 350 317 349 343 294 262 239 299 98 149 67 109 211 113 169 104 169 227 190 189 222 181 191 215 230 190 266 107 180 208 251 302 221 259 271 187 257 213 175 121 47 312
338 336 336 179 253 14 308 257 231 230 246 194 129 174 178 203 191 117 174 142 11 215 233 260 22 223 236 114 184 138 118 108 147 239 257 250 221 266 232 230 187 150 124 54 25
334 332 329 302 343 336 302 254 252 225 43 186 215 190 221 202 203 195 180 189 209 202 225 202 220 187 184 176 138 193 182 261 238 206 256 145 210 257 243 210 246 209 200 116 63
330 326 317 317 341 327 259 220 236 216 252 27 133 168 223 173 215 185 201 234 225 229 271 267 271 187 179 218 197 193 219 219 254 251 281 159 236 250 235 311 229 209 177 166 143
326 325 271 82 11 243 225 222 246 227 352 323 245 232 223 230 243 207 223 242 238 196 218 221 248 145 198 167 188 164 208 264 263 253 269 253 255 246 192 226 210 201 193 187 162
323 306 272 359 343 204 213 256 264 232 323 255 269 223 270 252 225 217 223 168 233 206 234 255 276 183 135 151 193 221 139 174 205 257 254 258 263 261 231 230 220 215 209 191 167
297 304 76 339 230 205 240 238 257 265 229 252 277 278 268 281 256 259 262 235 223 207 214 238 232 236 150 197 207 178 215 227 293 248 258 266 261 307 271 277 222 222 205 189 176
340 293 3 311 267 262 239 236 330 292 263 283 248 258 263 276 271 257 256 246 178 169 204 218 255 255 247 224 285 268 242 232 236 240 239 259 264 351 280 220 264 223 190 180 164
357 303 351 318 284 305 342 316 293 307 337 322 285 252 13 302 296 256 270 296 268 229 256 189 232 267 260 223 189 229 230 240 246 276 251 256 261 140 158 232 235 211 183 174 167
356 351 353 35 53 28 7 311 343 353 358 347 341 39 353 320 256 271 273 351 339 274 9 30 264 247 256 265 292 241 236 231 233 246 257 253 270 272 268 248 222 202 191 182 171
9 50 27 335 321 334 311 264 300 338 355 19 116 75 17 311 321 314 2 339 321 314 331 314 251 257 261 269 276 269 266 263 250 249 251 261 258 266 286 291 282 210 183 176 172
22 2 353 300 314 333 352 15 341 345 302 309 296 319 301 253 267 290 293 311 283 304 330 319 279 281 263 258 260 261 268 272 267 269 266 266 265 11 352 15 5 183 172 164 156
19 8 329 331 346 329 27 351 312 338 299 263 325 313 300 323 311 289 269 263 254 258 268 262 264 271 269 280 278 257 349 348 54 31 336 17 336 351 17 32 24 33 48 53 55